Overview Statistics Trail Chart Weather Telemetry Raw packets
 

This is the latest recevied weather packets stored in our database for station/object NL3D. If no packets are shown the sender has not sent any weather packets the latest 10 day(s).

<< 50 51 52 53 54 55 56 >>
Time Temp. Humidity Pressure Rain* Wind** Luminosity Snow
1777345109 7.78° C 63% 1008.5 hPa 0 mm - 38 W/m² -
1777344806 7.78° C 58% 1008.2 hPa 0 mm - 37 W/m² -
1777344501 8.33° C 56% 1008.6 hPa 0 mm - 38 W/m² -
1777344200 8.33° C 53% 1008.3 hPa 0 mm - 41 W/m² -
1777343897 7.78° C 60% 1008.1 hPa 0 mm - 44 W/m² -
1777343594 8.33° C 58% 1008.6 hPa 0 mm - 50 W/m² -
1777343291 8.33° C 52% 1008.3 hPa 0 mm - 57 W/m² -
1777342989 8.33° C 51% 1008.5 hPa 0 mm - 63 W/m² -
1777342685 8.33° C 52% 1008.4 hPa 0 mm - 63 W/m² -
1777342382 8.33° C 52% 1008.7 hPa 0 mm - 69 W/m² -
1777342080 8.33° C 52% 1008.3 hPa 0 mm - 76 W/m² -
1777341775 8.89° C 50% 1008.6 hPa 0 mm - 91 W/m² -
1777341472 8.33° C 52% 1008.4 hPa 0 mm - 99 W/m² -
1777341169 8.33° C 54% 1008.4 hPa 0 mm - 120 W/m² -
1777340865 8.33° C 59% 1008.5 hPa 0 mm - 111 W/m² -
1777340564 8.33° C 60% 1008.7 hPa 0 mm - 80 W/m² -
1777340261 8.33° C 58% 1009.1 hPa 0 mm - 83 W/m² -
1777339958 8.33° C 60% 1008.8 hPa 0 mm - 79 W/m² -
1777339655 8.89° C 51% 1009 hPa 0 mm - 88 W/m² -
1777339352 8.33° C 52% 1009.2 hPa 0 mm - 80 W/m² -
1777339051 8.33° C 53% 1009 hPa 0 mm - 81 W/m² -
1777338747 8.33° C 53% 1009.2 hPa 0 mm - 77 W/m² -
1777338445 8.33° C 55% 1009.1 hPa 0 mm - 84 W/m² -
1777338141 8.33° C 56% 1009.5 hPa 0 mm - 105 W/m² -
1777337837 7.78° C 64% 1009.6 hPa 0 mm - 120 W/m² -

* Rain latest hour (hover to see other rain measurements)
** Current wind speed in m/s (hover to see current wind gust speed)